Regional Weather Roundup
Issued by NWS

Home | Current Version | Previous Version | Text Only | Print | Product List | Glossary Off
Versions: 1 2 3 4 5 6 7 8 9 10 11 12 13 14 15 16 17 18 19 20 21 22 23 24 25 26 27 28 29 30 31 32 33 34 35 36 37 38 39 40 41 42 43 44 45 46 47 48 49 50

000
ASUS45 KBOI 300910
RWRID

IDAHO REGIONAL WEATHER ROUNDUP
NATIONAL WEATHER SERVICE BOISE ID
300 AM MDT SUN AUG 30 2015

NOTE: "FAIR" INDICATES FEW OR NO CLOUDS BELOW 12000 FEET
WITH NO SIGNIFICANT WEATHER AND/OR OBSTRUCTIONS TO VISIBILITY

IDZ012-014-301000-
SOUTHWEST IDAHO


CITY           SKY/WX    TMP DP  RH WIND       PRES   REMARKS
BOISE          MOCLDY    70  44  39 S3        29.88S
CALDWELL       MOCLDY    63  39  42 NW7       29.88S
MOUNTAIN HOME  CLOUDY    68  57  68 CALM      29.89S
$$

IDZ016-017-301000-
SOUTHCENTRAL IDAHO


CITY           SKY/WX    TMP DP  RH WIND       PRES   REMARKS
BURLEY         PTCLDY    58  50  75 SW9       29.95R
JEROME         PTCLDY    66  46  48 W13       29.95R
TWIN FALLS     MOCLDY    69  45  41 W13       29.97R
$$

IDZ019>023-301000-
SOUTHEAST IDAHO


CITY           SKY/WX    TMP DP  RH WIND       PRES   REMARKS
IDAHO FALLS    PTCLDY    59  55  87 SW7       29.92R
POCATELLO      CLEAR     61  57  87 SW12      29.94R
REXBURG        PTCLDY    59  53  80 N5        29.91F
$$

IDZ006-010-011-018-031-032-301000-
CENTRAL IDAHO MOUNTAINS


CITY           SKY/WX    TMP DP  RH WIND       PRES   REMARKS
MCCALL         CLOUDY    55  52  89 W7        29.95R
HAILEY         CLOUDY    61  46  59 SE6       30.01R
STANLEY          N/A     52  47  83 SE10      30.05F
SALMON         CLOUDY    70  43  37 W22G35    29.86R
CHALLIS        LGT RAIN  67  43  41 W23G33    29.96R
$$

IDZ002-004-006-007-026-301000-
NORTHERN IDAHO


CITY           SKY/WX    TMP DP  RH WIND       PRES   REMARKS
LEWISTON       NOT AVBL
LOWELL           N/A     59  58  96 CALM      29.89S
COEUR D`ALENE  PTCLDY    61  45  55 S10       29.85R
MULLAN PASS    CLOUDY    48  38  68 VRB3      29.97S
$$



USA.gov is the U.S. government's official web portal to all federal, state and local government web resources and services.